[[{"header":{"parameterUnit":"m.s-1","parameterCategory":2,"la1":30.2991,"la2":30.254,"lo1":-89.0895,"lo2":-89.0444,"dy":0.0017,"dx":0.0017,"nx":28,"ny":28,"refTime":"2025-08-20T03:00:00:Z","depth":"0","parameterNumber":2,"parameterNumberName":"U-component_of_CURRENTS"},"data":[0,0,0,0,0,0,0,0,0,0,0,0,0,0,0,0,0,0,0,0,0,0,0,0,0,0,0,0,0,0,0,0,0,0,0,0,0,0,0,0,0,0,0,0,0,0,0,0,0,0,0,0,0,0,0,0,0,0,0.3657,0.3657,0,0.369,0.369,0.369,0.3663,0.3662,0.3662,0.3661,0.363,0.363,0.363,0,0,0,0,0,0,0,0,0,0,0,0,0,0.3536,0.3538,0.3656,0.3657,0.3658,0.369,0.369,0.369,0.3663,0.3662,0.3661,0.3661,0.3631,0.363,0.363,0,0,0,0,0,0,0,0,0,0,0,0,0,0.3576,0.3539,0.3656,0.3652,0.3653,0.369,0.369,0.369,0.3663,0.3662,0.3661,0.366,0.3631,0.363,0.363,0.3649,0,0,0.3629,0.3629,0,0,0,0,0,0,0,0,0.3574,0.358,0.3652,0.3653,0.3653,0.3676,0.3637,0.3675,0.3664,0.3654,0.3661,0.366,0.3644,0.3642,0.3645,0.3648,0.3647,0.3629,0.3629,0.3629,0.3629,0,0,0,0,0,0,0,0.3571,0.3578,0.3665,0.3653,0.3654,0.3638,0.3642,0.3644,0.3649,0.3655,0.3654,0.3666,0.3643,0.3645,0.3644,0.3646,0.3629,0.3629,0.3629,0.3629,0.3696,0.3698,0,0,0,0,0,0,0.3581,0.3576,0.3664,0.3666,0.3616,0.3641,0.3646,0.3665,0.3651,0.3649,0.3667,0.3665,0.3646,0.3644,0.3643,0.3719,0.3629,0.3629,0.3629,0.3694,0.3696,0.3698,0,0,0,0,0,0,0.3578,0.3588,0.3662,0.3625,0.3634,0.3645,0.3667,0.3667,0.3675,0.3662,0.3658,0.3676,0.3645,0.3643,0.3665,0.3715,0.3629,0.3628,0.3692,0.3695,0.3697,0.3837,0,0,0,0,0,0,0.3574,0.3587,0.3602,0.3626,0.3637,0.3695,0.3669,0.3668,0.3686,0.3683,0.3668,0.3664,0.3644,0.3666,0.3665,0.3713,0.3628,0.3689,0.3693,0.3696,0.383,0.3844,0.3857,0,0,0,0,0,0.357,0.3595,0.3603,0.3613,0.3658,0.3697,0.3701,0.37,0.3687,0.3701,0.3698,0.3665,0.3687,0.3668,0.3666,0.3716,0.3687,0.3692,0.3696,0.3824,0.3842,0.3856,0,0,0,0,0,0,0.3548,0.3596,0.3604,0.3642,0.3674,0.3694,0.3708,0.3711,0.3719,0.3713,0.3692,0.3689,0.3731,0.37,0.3678,0.3744,0.3681,0.3685,0.3779,0.3795,0.3808,0.3818,0.3628,0,0,0,0,0,0.3555,0.3586,0.3627,0.3658,0.3676,0.3694,0.3709,0.3714,0.3728,0.373,0.3727,0.3725,0.3748,0.3751,0.3756,0.3791,0.3814,0.3819,0.3832,0.3844,0.3851,0.3904,0.3923,0.3713,0.3712,0.3712,0,0,0.356,0.3586,0.3607,0.3656,0.3676,0.372,0.3699,0.373,0.3769,0.3726,0.377,0.3774,0.3768,0.3816,0.383,0.3795,0.3935,0.3849,0.386,0.386,0.3911,0.3931,0.395,0.3715,0.3715,0.3714,0,0,0.3576,0.3607,0.3635,0.3671,0.3712,0.3735,0.375,0.3784,0.3799,0.3845,0.3837,0.3875,0.3885,0.3911,0.3921,0.4007,0.4007,0.4001,0.4077,0.413,0.4148,0.4164,0.4307,0.4334,0.4004,0.4004,0.4005,0,0.357,0.3622,0.3649,0.3687,0.3725,0.3749,0.3794,0.3828,0.3865,0.3887,0.387,0.3935,0.3937,0.4015,0.4056,0.4042,0.4092,0.4021,0.415,0.4165,0.4179,0.4321,0.4349,0.4012,0.4011,0.401,0.4009,0,0.3613,0.3659,0.3681,0.3746,0.3788,0.3832,0.389,0.393,0.3952,0.398,0.4051,0.4071,0.41,0.4126,0.4124,0.4229,0.4248,0.4168,0.4114,0.4209,0.4353,0.4381,0.4022,0.4019,0.4017,0.4015,0,0,0.3592,0.3688,0.3697,0.3741,0.3824,0.3863,0.3943,0.4018,0.4072,0.4112,0.4187,0.4251,0.4248,0.4261,0.427,0.4333,0.452,0.4303,0.4302,0.4458,0.4717,0.4609,0.4629,0.4455,0.4458,0.4461,0.4811,0,0.3615,0.3691,0.3738,0.3831,0.3886,0.3946,0.4019,0.4089,0.4146,0.4227,0.4268,0.4341,0.4303,0.4343,0.4396,0.4484,0.4583,0.4438,0.4589,0.4596,0.4495,0.4651,0.4476,0.4758,0.4837,0.4842,0.4845,0,0.3649,0.3697,0.378,0.3885,0.3912,0.3971,0.409,0.416,0.4274,0.4316,0.4382,0.4419,0.4554,0.4484,0.4686,0.4594,0.4671,0.4735,0.4747,0.4603,0.4533,0.4656,0.4803,0.4643,0.4886,0.4883,0.488,0,0.3638,0.3734,0.3799,0.384,0.3958,0.4003,0.4066,0.4179,0.4238,0.4389,0.445,0.4569,0.466,0.4749,0.4863,0.4798,0.5085,0.4998,0.4994,0.4992,0.4848,0.4823,0.4852,0.5139,0.5138,0.5137,0.5136,0,0.367,0.3723,0.3797,0.3844,0.3908,0.4002,0.4084,0.4167,0.4289,0.4385,0.4485,0.4594,0.4722,0.4875,0.4948,0.5074,0.5151,0.5061,0.5066,0.4898,0.4875,0.4723,0.4655,0.5151,0.5148,0.5145,0.5143,0,0.3682,0.3727,0.3799,0.3893,0.391,0.3966,0.4059,0.4145,0.4259,0.4399,0.4459,0.4666,0.4874,0.5,0.5215,0.5192,0.5174,0.5333,0.5174,0.5148,0.4911,0.4858,0.4761,0.4623,0.541,0.5409,0.5409,0,0.3708,0.3748,0.3805,0.3839,0.3883,0.3951,0.4013,0.4113,0.4207,0.444,0.4526,0.4766,0.4893,0.5173,0.5228,0.5373,0.5187,0.5277,0.507,0.4915,0.4863,0.4658,0.4533,0.5016,0.5012,0.5009,0.5006,0,0.3767,0.3773,0.3825,0.3852,0.3905,0.3932,0.4024,0.406,0.4226,0.4333,0.4511,0.463,0.491,0.4974,0.5147,0.519,0.4988,0.5211,0.5079,0.4586,0.4339,0.4201,0.4844,0.4979,0.4981,0.4983,0.4985,0.4986,0.3807,0.3817,0.3852,0.3865,0.3904,0.3891,0.3872,0.3983,0.404,0.4172,0.4402,0.4526,0.4739,0.4927,0.4936,0.4816,0.479,0.468,0.4665,0.4499,0.4206,0.4813,0.4884,0.4886,0.4888,0.489,0.4891,0,0.3832,0.3827,0.3867,0.3836,0.382,0.3842,0.3867,0.3825,0.3828,0.4038,0.4146,0.4316,0.4395,0.4508,0.4486,0.4309,0.4114,0.4189,0.3877,0.3807,0.4404,0.4216,0.4103,0.4103,0.4103,0.4103,0.4103,0.4104,0.3854,0.3844,0.3812,0.3728,0.3709,0.3599,0.356,0.3521,0.3591,0.3634,0.3717,0.387,0.4065,0.4174,0.4003,0.3901,0.358,0.3438,0.3417,0.3851,0.3894,0.3934,0.3737,0.3526,0.3526,0.2648,0.2642,0.2637]},{"header":{"parameterUnit":"m.s-1","parameterCategory":2,"la1":30.2991,"la2":30.254,"lo1":-89.0895,"lo2":-89.0444,"dy":0.0017,"dx":0.0017,"nx":28,"ny":28,"refTime":"2025-08-20T03:00:00:Z","depth":"0","parameterNumber":3,"parameterNumberName":"V-component_of_CURRENTS"},"data":[0,0,0,0,0,0,0,0,0,0,0,0,0,0,0,0,0,0,0,0,0,0,0,0,0,0,0,0,0,0,0,0,0,0,0,0,0,0,0,0,0,0,0,0,0,0,0,0,0,0,0,0,0,0,0,0,0,0,0.0201,0.0201,0,0.0145,0.0144,0.0143,0.009,0.009,0.0089,0.0089,-0.0019,-0.0021,-0.0024,0,0,0,0,0,0,0,0,0,0,0,0,0,0.0214,0.0215,0.0201,0.02,0.02,0.0145,0.0144,0.0143,0.009,0.009,0.0089,0.0089,-0.0018,-0.0021,-0.0024,0,0,0,0,0,0,0,0,0,0,0,0,0,0.0187,0.0215,0.0201,0.0168,0.0165,0.0145,0.0144,0.0143,0.0091,0.009,0.0089,0.0088,-0.0017,-0.0021,-0.0024,-0.0032,0,0,-0.0035,-0.0037,0,0,0,0,0,0,0,0,0.0189,0.0186,0.0174,0.0171,0.0167,0.0126,0.011,0.0083,0.0091,0.0117,0.0089,0.0088,0.0027,0.0019,0.0008,-0.0037,-0.0041,-0.0035,-0.0038,-0.0039,-0.004,0,0,0,0,0,0,0,0.0191,0.0188,0.0177,0.0173,0.0169,0.014,0.0136,0.0104,0.0074,0.0114,0.0111,0.0108,0.0024,0.0012,0.0005,-0.0043,-0.0035,-0.0039,-0.0041,-0.0042,-0.0131,-0.0132,0,0,0,0,0,0,0.0205,0.019,0.0179,0.0175,0.0178,0.0141,0.0136,0.0138,0.0075,0.0066,0.0109,0.0106,0.0019,0.001,0.0001,-0.0023,-0.0039,-0.0043,-0.0045,-0.0131,-0.0131,-0.0132,0,0,0,0,0,0,0.0205,0.0205,0.0181,0.0183,0.0178,0.0142,0.0145,0.0137,0.0127,0.0072,0.0061,0.0107,0.0018,0.0006,-0.003,-0.0027,-0.0044,-0.0047,-0.0131,-0.0131,-0.0132,-0.0064,0,0,0,0,0,0,0.0206,0.0205,0.0211,0.0184,0.0178,0.0179,0.0145,0.0137,0.0127,0.0123,0.0067,0.0056,0.0016,-0.0024,-0.0034,-0.0032,-0.005,-0.0131,-0.0131,-0.0131,-0.0066,-0.0062,-0.0059,0,0,0,0,0,0.0207,0.0223,0.0212,0.021,0.0188,0.018,0.0174,0.0144,0.0128,0.0131,0.0085,0.0057,-0.0034,-0.0027,-0.0038,-0.0038,-0.013,-0.0131,-0.0131,-0.0068,-0.0063,-0.0059,0,0,0,0,0,0,0.0234,0.0219,0.0205,0.0217,0.0203,0.0172,0.0172,0.0153,0.012,0.0113,0.0057,0.0043,0.001,-0.0023,-0.0014,-0.0067,-0.0087,-0.009,-0.0035,-0.0031,-0.0027,0.001,-0.0053,0,0,0,0,0,0.0244,0.025,0.023,0.0239,0.0234,0.0204,0.0197,0.018,0.0149,0.0134,0.0094,0.0046,0.0001,-0.0021,-0.0062,-0.0085,-0.0068,-0.0094,-0.009,-0.0087,-0.0065,-0.0043,-0.0034,-0.0133,-0.0133,-0.0133,0,0,0.0258,0.0249,0.0254,0.0245,0.0229,0.023,0.0198,0.0195,0.0191,0.0127,0.0107,0.0059,-0.0003,-0.0035,-0.0052,-0.0061,-0.0047,-0.0087,-0.0084,-0.0063,-0.0042,-0.0032,-0.0023,-0.0133,-0.0133,-0.0133,0,0,0.029,0.0282,0.0296,0.0289,0.0275,0.0255,0.0259,0.0234,0.0217,0.0195,0.014,0.0101,0.004,-0.0003,-0.0035,-0.0033,-0.0028,-0.0053,-0.0001,0.0019,0.0029,0.0037,0.0096,0.0109,-0.005,-0.005,-0.005,0,0.0306,0.0322,0.03,0.031,0.0308,0.0272,0.0286,0.0265,0.023,0.0227,0.0198,0.0125,0.0058,0.003,0.0012,-0.0022,0.0009,-0.0011,0.0029,0.0037,0.0045,0.0102,0.0116,-0.0046,-0.0047,-0.0047,-0.0047,0,0.0348,0.0357,0.0367,0.0364,0.0358,0.0368,0.0338,0.0333,0.0307,0.0289,0.0268,0.0191,0.016,0.0114,0.0053,0.0065,0.0078,0.0034,0.0028,0.0059,0.0117,0.0131,-0.0042,-0.0043,-0.0044,-0.0045,0,0,0.039,0.0396,0.0398,0.0415,0.039,0.0401,0.0391,0.0387,0.0422,0.0363,0.0413,0.0286,0.0272,0.0235,0.0168,0.0157,0.0212,0.0119,0.0119,0.0198,0.0304,0.0285,0.0298,0.0184,0.0186,0.0187,0.0334,0,0.0427,0.0469,0.045,0.0487,0.0509,0.0475,0.0488,0.0478,0.0471,0.0514,0.0437,0.0458,0.0312,0.033,0.0284,0.0246,0.0246,0.018,0.0244,0.0247,0.0242,0.0311,0.0266,0.039,0.0346,0.0348,0.035,0,0.0471,0.0496,0.0545,0.0577,0.0586,0.0606,0.0647,0.0656,0.0678,0.0686,0.0677,0.065,0.0624,0.0516,0.0464,0.0437,0.0375,0.033,0.0335,0.0305,0.0252,0.0343,0.0415,0.0162,0.037,0.0368,0.0367,0,0.0532,0.0562,0.0611,0.0619,0.0648,0.0677,0.0698,0.0719,0.0789,0.0837,0.0938,0.0858,0.093,0.0793,0.0672,0.0591,0.0657,0.0537,0.0467,0.0467,0.0435,0.0428,0.0286,0.0517,0.0517,0.0516,0.0516,0,0.0588,0.0633,0.0658,0.0693,0.0791,0.077,0.0893,0.0905,0.1,0.1158,0.1063,0.1217,0.1011,0.1013,0.0804,0.0714,0.0767,0.0514,0.0507,0.0457,0.0451,0.0231,0.0097,0.0522,0.0521,0.052,0.0519,0,0.0678,0.0674,0.0753,0.08,0.0831,0.0915,0.1049,0.1164,0.1223,0.1449,0.1502,0.1557,0.1564,0.1348,0.1213,0.097,0.0692,0.077,0.0745,0.0728,0.0347,0.0221,0.0149,0.0046,0.0702,0.0702,0.0703,0,0.0743,0.0787,0.0864,0.0951,0.0993,0.1114,0.1229,0.1282,0.1435,0.1685,0.1843,0.1934,0.2032,0.1819,0.1414,0.1093,0.0814,0.0822,0.0606,0.0355,0.0209,0.0118,0.0028,0.0611,0.0611,0.0611,0.061,0,0.0891,0.0907,0.0982,0.1139,0.1266,0.1412,0.1581,0.1725,0.1861,0.207,0.2367,0.247,0.2301,0.1989,0.1535,0.1254,0.0623,0.0804,0.0546,0.0139,0.0033,-0.0078,0.051,0.0607,0.0608,0.0608,0.0608,0.0608,0.1029,0.111,0.12,0.1351,0.15,0.1696,0.1839,0.2057,0.2313,0.2638,0.2728,0.2923,0.2412,0.1791,0.1413,0.0624,0.0649,0.0324,0.0208,0.0153,-0.0017,0.0583,0.0649,0.065,0.065,0.0651,0.0651,0,0.1186,0.1262,0.142,0.1578,0.1756,0.1795,0.2071,0.2239,0.2559,0.2879,0.3114,0.2945,0.2308,0.162,0.0579,0.0084,-0.012,-0.0188,-0.0371,-0.0426,0.0113,0.0029,-0.004,-0.004,-0.004,-0.004,-0.0039,-0.0039,0.1283,0.1429,0.1475,0.1752,0.1883,0.2109,0.2259,0.2538,0.2783,0.3135,0.3251,0.3303,0.268,0.0915,-0.0256,-0.05,-0.0861,-0.0897,-0.1035,-0.0753,-0.0716,-0.0682,-0.0797,-0.1037,-0.1039,-0.1557,-0.1563,-0.1567]}],[{"header":{"parameterUnit":"m.s-1","parameterCategory":2,"la1":30.2991,"la2":30.254,"lo1":-89.0895,"lo2":-89.0444,"dy":0.0017,"dx":0.0017,"nx":28,"ny":28,"refTime":"2025-08-20T03:00:00:Z","depth":"2","parameterNumber":2,"parameterNumberName":"U-component_of_CURRENTS"},"data":[0,0,0,0,0,0,0,0,0,0,0,0,0,0,0,0,0,0,0,0,0,0,0,0,0,0,0,0,0,0,0,0,0,0,0,0,0,0,0,0,0,0,0,0,0,0,0,0,0,0,0,0,0,0,0,0,0,0,0.27,0.2701,0,0.2736,0.2736,0.2736,0.2767,0.2768,0.2769,0.277,0.2767,0.2767,0.2766,0,0,0,0,0,0,0,0,0,0,0,0,0,0.2665,0.2665,0.27,0.2701,0.2702,0.2736,0.2736,0.2737,0.2767,0.2768,0.2769,0.277,0.2767,0.2767,0.2766,0,0,0,0,0,0,0,0,0,0,0,0,0,0.2685,0.2665,0.27,0.2724,0.2727,0.2736,0.2736,0.2737,0.2767,0.2768,0.2769,0.277,0.2768,0.2767,0.2766,0.2737,0,0,0.2762,0.2762,0,0,0,0,0,0,0,0,0.2684,0.2685,0.272,0.2723,0.2726,0.2752,0.2724,0.2736,0.2767,0.2747,0.277,0.2771,0.2761,0.276,0.2759,0.2737,0.2736,0.2762,0.2761,0.2761,0.2761,0,0,0,0,0,0,0,0.2682,0.2684,0.271,0.2721,0.2725,0.2737,0.274,0.2726,0.2743,0.2749,0.2753,0.2763,0.2762,0.276,0.2759,0.2736,0.2762,0.2761,0.276,0.276,0.2809,0.2811,0,0,0,0,0,0,0.2685,0.2683,0.2709,0.2712,0.2712,0.2737,0.274,0.2739,0.2744,0.2748,0.2762,0.2765,0.2761,0.276,0.2759,0.281,0.2761,0.276,0.2759,0.2807,0.281,0.2812,0,0,0,0,0,0,0.2683,0.2686,0.2708,0.2702,0.2706,0.2737,0.2735,0.2739,0.2763,0.2756,0.2758,0.2785,0.2762,0.2761,0.2782,0.2807,0.2759,0.2758,0.2805,0.2808,0.2811,0.2857,0,0,0,0,0,0,0.2682,0.2685,0.2694,0.2702,0.2707,0.2739,0.2734,0.2739,0.2769,0.2773,0.2775,0.2775,0.2763,0.2784,0.2781,0.2804,0.2757,0.2802,0.2806,0.281,0.2853,0.2861,0.2868,0,0,0,0,0,0.268,0.2691,0.2694,0.2698,0.2715,0.274,0.2744,0.2766,0.2769,0.2789,0.2796,0.2776,0.2806,0.2784,0.278,0.2804,0.2801,0.2805,0.281,0.2849,0.2859,0.2868,0,0,0,0,0,0,0.2675,0.2695,0.2699,0.2713,0.2737,0.2748,0.2772,0.2777,0.2796,0.2811,0.279,0.279,0.2823,0.281,0.2787,0.2834,0.2804,0.2808,0.2836,0.2845,0.2853,0.2899,0.2757,0,0,0,0,0,0.2678,0.2694,0.2713,0.2726,0.2743,0.2758,0.2774,0.2795,0.2809,0.282,0.2811,0.2819,0.2832,0.2837,0.2845,0.2857,0.29,0.2876,0.2884,0.289,0.2928,0.3021,0.3041,0.2826,0.2826,0.2826,0,0,0.2674,0.2693,0.2699,0.2728,0.2747,0.2767,0.277,0.2814,0.2831,0.2814,0.2832,0.2843,0.2845,0.2872,0.2885,0.2865,0.2972,0.2896,0.2901,0.2937,0.3028,0.3049,0.3068,0.283,0.2829,0.2828,0,0,0.2678,0.27,0.2715,0.274,0.2788,0.2801,0.2818,0.2842,0.2862,0.2884,0.2885,0.2928,0.2913,0.294,0.2946,0.3002,0.3013,0.2992,0.3059,0.3148,0.3167,0.3184,0.3256,0.328,0.2991,0.2991,0.2991,0,0.2679,0.2697,0.2724,0.2749,0.2778,0.2814,0.2841,0.286,0.2885,0.2928,0.2904,0.2992,0.2956,0.3048,0.3043,0.3021,0.3069,0.3015,0.3159,0.3177,0.3194,0.3264,0.3289,0.2994,0.2993,0.2993,0.2993,0,0.2685,0.2713,0.2732,0.2769,0.2799,0.2843,0.2875,0.2918,0.2943,0.2975,0.3084,0.3088,0.3161,0.3135,0.3082,0.3195,0.3189,0.3159,0.3135,0.3219,0.3286,0.3312,0.2997,0.2996,0.2996,0.2995,0,0,0.266,0.2724,0.2732,0.2763,0.2827,0.2853,0.2909,0.2987,0.3078,0.3114,0.3207,0.3242,0.3304,0.3319,0.3308,0.3347,0.3447,0.3287,0.3291,0.3359,0.3648,0.349,0.3502,0.3442,0.3447,0.345,0.3644,0,0.2665,0.2711,0.2744,0.2796,0.2829,0.2899,0.2963,0.3047,0.3127,0.3216,0.329,0.3372,0.336,0.3403,0.3461,0.3447,0.3519,0.3399,0.3559,0.3565,0.3413,0.3528,0.324,0.3375,0.3668,0.3673,0.3676,0,0.2664,0.27,0.2747,0.2852,0.2879,0.2919,0.308,0.3138,0.3289,0.3359,0.3513,0.3563,0.3667,0.3597,0.3773,0.37,0.3694,0.3681,0.3688,0.3551,0.3454,0.3342,0.341,0.3718,0.3715,0.3712,0.3709,0,0.264,0.2711,0.2754,0.2779,0.2892,0.2953,0.3023,0.3196,0.3285,0.345,0.3553,0.3735,0.3805,0.3888,0.3889,0.3842,0.4021,0.396,0.3853,0.3842,0.3636,0.3597,0.4095,0.4095,0.4095,0.4094,0.4094,0,0.2644,0.268,0.275,0.2775,0.2883,0.295,0.3101,0.3223,0.3375,0.3491,0.3638,0.3771,0.3873,0.3979,0.397,0.4011,0.4137,0.3911,0.3898,0.3639,0.36,0.392,0.3897,0.4101,0.41,0.4098,0.4097,0,0.2618,0.2662,0.2724,0.283,0.2875,0.2948,0.3105,0.3221,0.3393,0.3536,0.3581,0.3806,0.3952,0.4056,0.4143,0.4109,0.4137,0.4106,0.378,0.3722,0.3883,0.386,0.4053,0.4049,0.4046,0.4044,0.4042,0,0.2611,0.2645,0.2745,0.2793,0.2843,0.2949,0.3047,0.3208,0.3291,0.3556,0.3593,0.3802,0.3896,0.4037,0.3997,0.4032,0.4098,0.3761,0.3605,0.392,0.3888,0.387,0.3852,0.3366,0.3358,0.3352,0.3347,0,0.2607,0.2648,0.2701,0.2766,0.2852,0.2946,0.3048,0.31,0.3272,0.3396,0.3529,0.3619,0.3779,0.3672,0.3713,0.3679,0.3731,0.3632,0.4108,0.3384,0.3277,0.3243,0.3248,0.3292,0.3298,0.3302,0.3305,0.3307,0.2621,0.264,0.2672,0.2733,0.283,0.2862,0.2888,0.296,0.303,0.3119,0.3289,0.3333,0.3408,0.3309,0.3232,0.3188,0.3421,0.3279,0.3297,0.3322,0.3171,0.306,0.3009,0.3012,0.3015,0.3018,0.3021,0,0.2562,0.2564,0.2619,0.2663,0.2685,0.2769,0.2828,0.2775,0.2752,0.2881,0.2927,0.2718,0.269,0.2787,0.2638,0.2633,0.2602,0.2531,0.2479,0.2536,0.2586,0.2395,0.2029,0.2026,0.2023,0.202,0,0,0.2512,0.2477,0.246,0.2435,0.2504,0.2471,0.2469,0.2406,0.2418,0.2344,0.235,0.2555,0.27,0.2319,0.2283,0.2138,0.2312,0.2054,0.2857,0.2854,0.2899,0.3035,0.2808,0,0,0,0,0]},{"header":{"parameterUnit":"m.s-1","parameterCategory":2,"la1":30.2991,"la2":30.254,"lo1":-89.0895,"lo2":-89.0444,"dy":0.0017,"dx":0.0017,"nx":28,"ny":28,"refTime":"2025-08-20T03:00:00:Z","depth":"2","parameterNumber":3,"parameterNumberName":"V-component_of_CURRENTS"},"data":[0,0,0,0,0,0,0,0,0,0,0,0,0,0,0,0,0,0,0,0,0,0,0,0,0,0,0,0,0,0,0,0,0,0,0,0,0,0,0,0,0,0,0,0,0,0,0,0,0,0,0,0,0,0,0,0,0,0,0.0125,0.0125,0,0.007,0.0069,0.0068,0.0017,0.0017,0.0016,0.0016,-0.0077,-0.0079,-0.0081,0,0,0,0,0,0,0,0,0,0,0,0,0,0.0131,0.0131,0.0125,0.0125,0.0124,0.007,0.0069,0.0068,0.0017,0.0017,0.0016,0.0016,-0.0076,-0.0078,-0.0081,0,0,0,0,0,0,0,0,0,0,0,0,0,0.0105,0.0131,0.0126,0.0094,0.0091,0.007,0.0069,0.0068,0.0017,0.0017,0.0016,0.0016,-0.0075,-0.0078,-0.0081,-0.0088,0,0,-0.0091,-0.0092,0,0,0,0,0,0,0,0,0.0107,0.0105,0.0099,0.0096,0.0093,0.0052,0.0037,0.0015,0.0018,0.0043,0.0016,0.0015,-0.0035,-0.0042,-0.0053,-0.0092,-0.0096,-0.0091,-0.0093,-0.0094,-0.0095,0,0,0,0,0,0,0,0.0109,0.0107,0.0101,0.0099,0.0095,0.0064,0.006,0.0032,0.0006,0.0041,0.0038,0.0035,-0.0038,-0.005,-0.0056,-0.0097,-0.0091,-0.0094,-0.0096,-0.0097,-0.0164,-0.0164,0,0,0,0,0,0,0.0124,0.0109,0.0103,0.01,0.0101,0.0064,0.006,0.0064,0.0007,-0.0002,0.0036,0.0033,-0.0044,-0.0052,-0.0059,-0.0071,-0.0094,-0.0097,-0.0099,-0.0164,-0.0164,-0.0164,0,0,0,0,0,0,0.0124,0.0124,0.0105,0.0104,0.01,0.0066,0.007,0.0063,0.0051,0.0004,-0.0006,0.0031,-0.0045,-0.0055,-0.0085,-0.0075,-0.0099,-0.0101,-0.0164,-0.0164,-0.0164,-0.0094,0,0,0,0,0,0,0.0125,0.0125,0.013,0.0106,0.0101,0.0099,0.0071,0.0063,0.0052,0.0047,-0.0003,-0.0013,-0.0047,-0.008,-0.0088,-0.008,-0.0104,-0.0164,-0.0164,-0.0164,-0.0096,-0.0091,-0.0087,0,0,0,0,0,0.0125,0.0141,0.0131,0.013,0.0111,0.01,0.0095,0.0066,0.0052,0.0052,0.0013,-0.0011,-0.0085,-0.0083,-0.0092,-0.0084,-0.0164,-0.0164,-0.0164,-0.0098,-0.0092,-0.0087,0,0,0,0,0,0,0.0146,0.0137,0.0125,0.0137,0.0122,0.0092,0.0091,0.0073,0.0043,0.0038,-0.001,-0.0022,-0.0046,-0.0075,-0.0071,-0.0104,-0.0128,-0.013,-0.0075,-0.007,-0.0066,-0.0043,-0.0106,0,0,0,0,0,0.0155,0.0165,0.0146,0.0155,0.015,0.0122,0.0113,0.0097,0.0069,0.0055,0.0021,-0.0018,-0.0051,-0.0068,-0.0102,-0.0117,-0.0143,-0.012,-0.0115,-0.0111,-0.0099,-0.0128,-0.0125,-0.0163,-0.0163,-0.0163,0,0,0.0164,0.0162,0.0165,0.016,0.0145,0.0149,0.0114,0.011,0.0115,0.005,0.0043,-0.0003,-0.0053,-0.0073,-0.0086,-0.0096,-0.0115,-0.011,-0.0106,-0.0097,-0.0128,-0.0124,-0.012,-0.0163,-0.0163,-0.0163,0,0,0.0195,0.0187,0.0206,0.02,0.0189,0.0172,0.0175,0.015,0.0139,0.0122,0.0077,0.0041,-0.0008,-0.0039,-0.0062,-0.0052,-0.0091,-0.0066,-0.0022,-0.005,-0.0047,-0.0044,-0.0074,-0.0075,-0.0062,-0.0062,-0.0062,0,0.0205,0.0231,0.0208,0.0226,0.0233,0.0188,0.0213,0.0194,0.0162,0.0161,0.0128,0.0053,0.0011,-0.0013,-0.0013,-0.0039,-0.0064,-0.0036,-0.0042,-0.004,-0.0039,-0.0071,-0.0072,-0.0058,-0.0059,-0.0059,-0.0059,0,0.0252,0.0269,0.0281,0.0291,0.0293,0.0305,0.0284,0.0281,0.0256,0.023,0.0198,0.0127,0.0085,0.0061,0.0025,0.0015,-0.0009,-0.0033,-0.0051,-0.003,-0.0066,-0.0069,-0.0053,-0.0055,-0.0056,-0.0056,0,0,0.0281,0.031,0.0313,0.0341,0.0334,0.0346,0.0358,0.0359,0.0375,0.031,0.0319,0.0237,0.0188,0.0158,0.0101,0.007,0.0053,0.0029,0.0026,0.001,-0.0011,-0.0057,-0.0065,0.0029,0.0029,0.0029,-0.004,0,0.0324,0.0386,0.0385,0.0438,0.0469,0.0449,0.0472,0.0463,0.0435,0.0427,0.0341,0.0315,0.0228,0.0209,0.016,0.0092,0.0049,0.0074,-0.0037,-0.004,-0.0075,-0.0069,-0.0039,-0.01,-0.0043,-0.0044,-0.0044,0,0.0371,0.0412,0.0478,0.0538,0.055,0.0568,0.0606,0.0619,0.0588,0.0561,0.0498,0.0434,0.0372,0.0296,0.0171,0.0191,0.0096,0.0028,0.0023,-0.0044,-0.0092,-0.0112,-0.0108,-0.0049,-0.0049,-0.0049,-0.0048,0,0.0417,0.0479,0.0543,0.0558,0.0607,0.0638,0.0658,0.0655,0.0687,0.0641,0.065,0.0541,0.0509,0.0375,0.0222,0.0204,0.0086,0.0043,-0.0097,-0.0102,-0.011,-0.0115,-0.0052,-0.0052,-0.0052,-0.0052,-0.0052,0,0.0467,0.0516,0.0569,0.0601,0.0683,0.0698,0.0769,0.0763,0.078,0.0817,0.0717,0.0719,0.053,0.0437,0.0271,0.0084,0.0118,-0.0086,-0.0121,-0.0087,-0.0089,-0.0072,-0.0073,-0.0054,-0.0054,-0.0053,-0.0053,0,0.0496,0.0529,0.0605,0.0676,0.0702,0.0756,0.0842,0.0899,0.0897,0.0942,0.0939,0.0867,0.0739,0.0541,0.0338,0.0165,-0.0016,-0.0098,-0.0048,-0.0077,-0.0201,-0.0198,-0.0257,-0.026,-0.0261,-0.0263,-0.0264,0,0.0514,0.0555,0.0651,0.0703,0.0731,0.0817,0.0889,0.0933,0.0996,0.103,0.1064,0.0976,0.0908,0.0597,0.0292,-0.0003,-0.0039,-0.0181,-0.0225,-0.0193,-0.0221,-0.0215,-0.021,-0.0208,-0.0208,-0.0209,-0.0209,0,0.0538,0.0566,0.0627,0.074,0.082,0.093,0.1029,0.1109,0.1169,0.1228,0.1277,0.1238,0.0932,0.0649,0.024,0.0033,-0.0132,-0.0206,-0.0168,-0.0165,-0.0153,-0.0178,-0.0173,-0.0215,-0.0214,-0.0214,-0.0214,-0.0213,0.0537,0.0587,0.0668,0.0783,0.0881,0.1024,0.1138,0.1262,0.1393,0.1495,0.1425,0.1378,0.1031,0.052,0.0174,-0.0182,-0.0186,-0.0314,-0.0308,-0.0303,-0.029,-0.0282,-0.0366,-0.0366,-0.0366,-0.0367,-0.0367,0,0.0555,0.0621,0.0716,0.0859,0.0986,0.1035,0.1228,0.1357,0.1543,0.1602,0.1634,0.1295,0.0962,0.0583,0.0052,-0.0287,-0.0298,-0.0386,-0.0316,-0.031,-0.0304,-0.0288,-0.0365,-0.0366,-0.0367,-0.0367,0,0,0.0556,0.0658,0.0732,0.0928,0.1034,0.1224,0.135,0.1532,0.1636,0.1714,0.1688,0.1565,0.1085,0.0703,0.0249,-0.0043,-0.0095,-0.0107,-0.0077,0.0065,0.0076,-0.0239,-0.0206,0,0,0,0,0]}],[{"header":{"parameterUnit":"m.s-1","parameterCategory":2,"la1":30.2991,"la2":30.254,"lo1":-89.0895,"lo2":-89.0444,"dy":0.0017,"dx":0.0017,"nx":28,"ny":28,"refTime":"2025-08-20T03:00:00:Z","depth":"4","parameterNumber":2,"parameterNumberName":"U-component_of_CURRENTS"},"data":[0,0,0,0,0,0,0,0,0,0,0,0,0,0,0,0,0,0,0,0,0,0,0,0,0,0,0,0,0,0,0,0,0,0,0,0,0,0,0,0,0,0,0,0,0,0,0,0,0,0,0,0,0,0,0,0,0,0,0.153,0.1531,0,0.1598,0.1599,0.1599,0.1662,0.1663,0.1664,0.1665,0.1748,0.175,0.1751,0,0,0,0,0,0,0,0,0,0,0,0,0,0.1452,0.1453,0.153,0.1531,0.1533,0.1598,0.1599,0.1599,0.1662,0.1663,0.1665,0.1666,0.1748,0.1749,0.1751,0,0,0,0,0,0,0,0,0,0,0,0,0,0.1496,0.1453,0.153,0.1574,0.1579,0.1598,0.1599,0.1599,0.1662,0.1663,0.1665,0.1667,0.1747,0.1749,0.1751,0.173,0,0,0.1756,0.1757,0,0,0,0,0,0,0,0,0.1494,0.1499,0.1567,0.1571,0.1577,0.1626,0.1602,0.1645,0.1661,0.1627,0.1665,0.1667,0.171,0.1715,0.1719,0.1733,0.1737,0.1757,0.1758,0.1759,0.1759,0,0,0,0,0,0,0,0.1491,0.1496,0.1554,0.1568,0.1574,0.159,0.1598,0.161,0.1656,0.163,0.1636,0.1648,0.1713,0.1717,0.1722,0.1738,0.1757,0.1758,0.1759,0.176,0.1861,0.1862,0,0,0,0,0,0,0.1487,0.1493,0.1552,0.1556,0.1542,0.159,0.1599,0.1606,0.1656,0.1666,0.1646,0.1651,0.1713,0.1719,0.1725,0.1803,0.1758,0.176,0.1761,0.1859,0.1861,0.1863,0,0,0,0,0,0,0.1485,0.1492,0.1549,0.1529,0.1538,0.159,0.1598,0.1607,0.1646,0.1669,0.1679,0.1682,0.1715,0.1722,0.1772,0.1803,0.1761,0.1763,0.1857,0.186,0.1862,0.1895,0,0,0,0,0,0,0.1483,0.149,0.151,0.1529,0.1539,0.1582,0.1597,0.1607,0.1651,0.1658,0.1701,0.1709,0.1717,0.177,0.1774,0.1805,0.1764,0.1855,0.1859,0.1861,0.1892,0.1898,0.1904,0,0,0,0,0,0.1479,0.1494,0.151,0.1518,0.1559,0.1583,0.159,0.163,0.1651,0.1671,0.1708,0.1709,0.1792,0.1772,0.1777,0.1809,0.1854,0.1858,0.1861,0.1889,0.1897,0.1904,0,0,0,0,0,0,0.1476,0.1503,0.1521,0.1546,0.1574,0.1596,0.1622,0.1644,0.1687,0.1708,0.1724,0.1734,0.1791,0.1795,0.1773,0.1849,0.1825,0.183,0.1845,0.1852,0.1858,0.1849,0.1766,0,0,0,0,0,0.1481,0.1502,0.1527,0.1553,0.1567,0.1599,0.162,0.1649,0.1682,0.1704,0.1735,0.1772,0.1802,0.1825,0.1851,0.1885,0.1906,0.1912,0.1918,0.1923,0.1921,0.1999,0.2011,0.1875,0.1875,0.1875,0,0,0.1484,0.1508,0.1519,0.1555,0.158,0.1598,0.1616,0.1659,0.1688,0.1704,0.1764,0.1795,0.1817,0.1864,0.189,0.1876,0.1972,0.1928,0.1932,0.1926,0.2004,0.2017,0.2029,0.1877,0.1877,0.1877,0,0,0.149,0.1524,0.1537,0.1561,0.1609,0.1626,0.1644,0.1685,0.1722,0.1769,0.1798,0.185,0.189,0.1919,0.1933,0.1985,0.2003,0.2001,0.2021,0.2097,0.2109,0.212,0.2156,0.2169,0.2002,0.2002,0.2002,0,0.1496,0.1517,0.1547,0.1566,0.1589,0.1638,0.1655,0.1691,0.1751,0.1781,0.1798,0.1887,0.1912,0.1966,0.1989,0.1998,0.2035,0.1989,0.2105,0.2116,0.2126,0.2161,0.2175,0.2004,0.2004,0.2003,0.2003,0,0.15,0.1529,0.1541,0.1577,0.1605,0.1636,0.168,0.1726,0.1774,0.1811,0.1893,0.1937,0.1994,0.201,0.2013,0.2098,0.2098,0.2105,0.2084,0.2142,0.2175,0.2189,0.2007,0.2006,0.2005,0.2005,0,0,0.147,0.153,0.1537,0.1557,0.1618,0.1636,0.1689,0.1741,0.1791,0.186,0.1932,0.1984,0.2034,0.2055,0.2086,0.214,0.2242,0.2156,0.2159,0.2185,0.2397,0.2237,0.2237,0.2282,0.2285,0.2287,0.2387,0,0.1465,0.15,0.1533,0.1568,0.1584,0.1641,0.1685,0.1748,0.1815,0.1904,0.1972,0.2062,0.2046,0.2107,0.2157,0.2247,0.2284,0.2212,0.2341,0.2344,0.2191,0.225,0.2297,0.2398,0.2401,0.2404,0.2405,0,0.1446,0.1478,0.151,0.1567,0.158,0.1617,0.1699,0.1752,0.1874,0.1934,0.2028,0.2107,0.2221,0.2206,0.2349,0.2314,0.2349,0.2388,0.2393,0.224,0.2211,0.2332,0.2432,0.243,0.2428,0.2426,0.2424,0,0.1398,0.1453,0.1484,0.1504,0.1579,0.1615,0.1669,0.177,0.1842,0.1991,0.2078,0.2196,0.2316,0.2381,0.246,0.2437,0.2602,0.2585,0.2452,0.2441,0.254,0.2528,0.2656,0.2656,0.2655,0.2655,0.2655,0,0.1361,0.1383,0.1474,0.1489,0.1539,0.1605,0.1688,0.1751,0.1899,0.1992,0.2117,0.2216,0.2375,0.2485,0.2509,0.2526,0.2648,0.2457,0.2462,0.2549,0.2537,0.255,0.2536,0.2659,0.2658,0.2657,0.2657,0,0.1286,0.135,0.1385,0.1479,0.1518,0.1559,0.1704,0.1762,0.191,0.2049,0.212,0.2306,0.2437,0.2536,0.267,0.2593,0.2622,0.2582,0.2662,0.267,0.2392,0.238,0.2454,0.245,0.2446,0.2442,0.244,0,0.1246,0.1259,0.1369,0.1402,0.145,0.1539,0.16,0.1753,0.1821,0.2068,0.2121,0.2332,0.2426,0.2483,0.2582,0.2612,0.2568,0.2552,0.2455,0.2377,0.2376,0.2369,0.2362,0.2433,0.2432,0.2431,0.243,0,0.1154,0.1209,0.1245,0.1324,0.1392,0.146,0.1563,0.1616,0.1796,0.1965,0.2086,0.2177,0.2314,0.2398,0.2441,0.2446,0.2555,0.251,0.2517,0.2426,0.2353,0.2354,0.2351,0.2416,0.2418,0.242,0.242,0,0.1089,0.1091,0.1157,0.1214,0.1299,0.1341,0.1418,0.1511,0.1617,0.188,0.1919,0.212,0.2298,0.2312,0.235,0.2354,0.231,0.2213,0.2235,0.2251,0.2135,0.201,0.1977,0,0,0,0,0,0.1014,0.0995,0.1037,0.1088,0.1174,0.1228,0.1366,0.1451,0.1645,0.168,0.1798,0.1906,0.2009,0.2109,0.2073,0.2244,0.2303,0.2188,0.2197,0.234,0.2356,0.2237,0,0,0,0,0,0,0.0953,0.0969,0.0987,0.098,0.0998,0.1075,0.1162,0.1297,0.1323,0.1536,0.1603,0.1768,0.1893,0.2007,0.2029,0.2056,0.2017,0.2311,0.2305,0.2331,0.2346,0.2358,0.2241,0,0,0,0,0]},{"header":{"parameterUnit":"m.s-1","parameterCategory":2,"la1":30.2991,"la2":30.254,"lo1":-89.0895,"lo2":-89.0444,"dy":0.0017,"dx":0.0017,"nx":28,"ny":28,"refTime":"2025-08-20T03:00:00:Z","depth":"4","parameterNumber":3,"parameterNumberName":"V-component_of_CURRENTS"},"data":[0,0,0,0,0,0,0,0,0,0,0,0,0,0,0,0,0,0,0,0,0,0,0,0,0,0,0,0,0,0,0,0,0,0,0,0,0,0,0,0,0,0,0,0,0,0,0,0,0,0,0,0,0,0,0,0,0,0,0.0124,0.0124,0,0.0088,0.0088,0.0087,0.0056,0.0055,0.0055,0.0055,-0.0008,-0.0009,-0.0011,0,0,0,0,0,0,0,0,0,0,0,0,0,0.0122,0.0123,0.0124,0.0124,0.0124,0.0088,0.0088,0.0087,0.0056,0.0055,0.0055,0.0055,-0.0007,-0.0009,-0.0011,0,0,0,0,0,0,0,0,0,0,0,0,0,0.0107,0.0123,0.0124,0.0105,0.0103,0.0088,0.0088,0.0087,0.0056,0.0055,0.0055,0.0055,-0.0007,-0.0009,-0.0011,-0.0018,0,0,-0.0018,-0.0019,0,0,0,0,0,0,0,0,0.0108,0.0107,0.0108,0.0106,0.0104,0.0077,0.0064,0.0051,0.0056,0.0072,0.0055,0.0055,0.0019,0.0015,0.0007,-0.0021,-0.0024,-0.0018,-0.0019,-0.002,-0.0021,0,0,0,0,0,0,0,0.0109,0.0108,0.0109,0.0108,0.0105,0.0083,0.0081,0.0061,0.0046,0.0071,0.0069,0.0067,0.0018,0.0009,0.0005,-0.0025,-0.0018,-0.002,-0.0021,-0.0022,-0.006,-0.006,0,0,0,0,0,0,0.012,0.011,0.011,0.0108,0.0107,0.0084,0.0081,0.0085,0.0047,0.0042,0.0067,0.0066,0.0013,0.0008,0.0003,0.0003,-0.002,-0.0022,-0.0024,-0.0061,-0.006,-0.006,0,0,0,0,0,0,0.012,0.012,0.0111,0.0108,0.0106,0.0085,0.0089,0.0085,0.0079,0.0045,0.0039,0.0067,0.0013,0.0006,-0.0011,0.0,-0.0023,-0.0025,-0.0061,-0.006,-0.006,-0.0003,0,0,0,0,0,0,0.012,0.0121,0.0128,0.011,0.0107,0.0108,0.0089,0.0084,0.0079,0.0076,0.0042,0.0036,0.0012,-0.0007,-0.0013,-0.0003,-0.0027,-0.0061,-0.0061,-0.006,-0.0005,-0.0001,0.0003,0,0,0,0,0,0.012,0.0134,0.0129,0.0129,0.0118,0.0109,0.0105,0.0087,0.0079,0.008,0.0057,0.0037,-0.0008,-0.0009,-0.0015,-0.0006,-0.0062,-0.0061,-0.006,-0.0007,-0.0002,0.0003,0,0,0,0,0,0,0.0136,0.0131,0.0126,0.0137,0.0126,0.0104,0.0105,0.0093,0.0075,0.0074,0.004,0.0032,0.0021,-0.0001,-0.0001,-0.0016,-0.0037,-0.0038,0.0005,0.001,0.0014,0.0037,-0.0029,0,0,0,0,0,0.0145,0.0154,0.0141,0.015,0.0148,0.0128,0.0123,0.0112,0.0094,0.0086,0.0062,0.0038,0.0018,0.0009,-0.0014,-0.0021,-0.006,-0.002,-0.0015,-0.0011,0.0002,-0.0053,-0.0053,-0.0058,-0.0058,-0.0058,0,0,0.0151,0.0152,0.0155,0.0154,0.0144,0.0151,0.0124,0.0122,0.013,0.0082,0.0083,0.0051,0.0019,0.001,0.0003,-0.0006,-0.0033,-0.001,-0.0007,0.0004,-0.0052,-0.0052,-0.0052,-0.0057,-0.0057,-0.0057,0,0,0.0174,0.0172,0.0189,0.0186,0.0182,0.017,0.0173,0.0156,0.0151,0.0144,0.0113,0.0091,0.006,0.0042,0.0028,0.0043,-0.0011,0.0032,0.0075,0.0021,0.0021,0.0021,-0.0039,-0.0045,0.0037,0.0037,0.0037,0,0.0183,0.0206,0.019,0.0207,0.0214,0.0183,0.0204,0.0195,0.0174,0.0174,0.0153,0.0107,0.0079,0.0071,0.0076,0.0055,0.0009,0.0059,0.0027,0.0026,0.0024,-0.0037,-0.0045,0.004,0.004,0.0039,0.0039,0,0.0219,0.0238,0.0248,0.0262,0.0264,0.0275,0.0264,0.0266,0.0251,0.0234,0.0219,0.0174,0.0149,0.0133,0.011,0.0093,0.0057,0.0036,0.0016,0.0028,-0.0038,-0.0047,0.0044,0.0043,0.0042,0.0041,0,0,0.0236,0.0269,0.0273,0.0295,0.0298,0.0304,0.0322,0.0327,0.0336,0.0304,0.0306,0.0269,0.0235,0.0218,0.0179,0.0137,0.0082,0.0088,0.0084,0.0032,-0.005,-0.0043,-0.0053,0.0047,0.0046,0.0046,-0.0096,0,0.0271,0.0322,0.0326,0.0369,0.0394,0.0384,0.0406,0.0404,0.0383,0.0372,0.0328,0.0307,0.0271,0.0253,0.0208,0.0111,0.0063,0.0122,-0.0057,-0.0062,-0.0055,-0.0061,0.0043,-0.0103,-0.0105,-0.0107,-0.0108,0,0.0307,0.0339,0.0394,0.0438,0.0448,0.0468,0.049,0.0505,0.0483,0.0466,0.0433,0.0382,0.033,0.0288,0.0142,0.0176,0.0077,-0.0002,-0.001,-0.0025,-0.0071,-0.0117,-0.0125,-0.0124,-0.0122,-0.0121,-0.012,0,0.0332,0.0386,0.0435,0.0449,0.0489,0.0517,0.0537,0.0534,0.0552,0.0519,0.0508,0.0431,0.0386,0.0263,0.0108,0.0116,-0.0074,-0.0088,-0.0175,-0.0177,-0.0167,-0.0165,-0.0191,-0.0191,-0.0191,-0.019,-0.019,0,0.0366,0.0403,0.0455,0.048,0.0542,0.0557,0.0608,0.0611,0.0615,0.0631,0.0559,0.0536,0.0374,0.0249,0.0112,-0.0061,-0.0076,-0.0166,-0.0208,-0.0141,-0.0135,-0.0174,-0.0171,-0.0196,-0.0194,-0.0193,-0.0192,0,0.0377,0.0412,0.0471,0.0531,0.0556,0.0598,0.0665,0.0698,0.0691,0.0705,0.0699,0.0597,0.0442,0.0265,0.0045,-0.0053,-0.0222,-0.0282,-0.0206,-0.0243,-0.0292,-0.0283,-0.0383,-0.0384,-0.0385,-0.0385,-0.0386,0,0.0383,0.0417,0.0504,0.0547,0.0577,0.0647,0.0702,0.0734,0.0764,0.0742,0.0747,0.0612,0.0525,0.0221,0.0032,-0.0234,-0.0263,-0.0356,-0.0303,-0.0277,-0.031,-0.03,-0.0291,-0.0387,-0.0387,-0.0387,-0.0387,0,0.0389,0.0425,0.0479,0.0577,0.0645,0.0722,0.0795,0.0824,0.0857,0.0845,0.0786,0.0641,0.0462,0.0234,0.0019,-0.0168,-0.0295,-0.0364,-0.0363,-0.0314,-0.0283,-0.0312,-0.0303,-0.039,-0.039,-0.0389,-0.0389,0,0.0394,0.0435,0.0521,0.0607,0.0693,0.0778,0.0815,0.0857,0.0889,0.0866,0.0838,0.0655,0.0542,0.0265,0.0068,-0.0115,-0.0147,-0.0194,-0.0202,-0.0202,-0.0098,-0.003,-0.0093,0,0,0,0,0,0.0405,0.0469,0.0546,0.0652,0.0736,0.0795,0.0873,0.0903,0.0928,0.0901,0.0876,0.0716,0.044,0.0309,0.0131,0.0051,-0.0187,-0.0165,-0.0248,-0.0403,-0.0401,-0.0308,0,0,0,0,0,0,0.0415,0.0498,0.0553,0.0677,0.075,0.0854,0.0909,0.0925,0.0908,0.0896,0.0748,0.0678,0.04,0.0544,0.0129,0.0072,-0.0003,-0.0298,-0.0301,-0.0405,-0.0402,-0.04,-0.0304,0,0,0,0,0]}]]